Regional Weather Roundup
Issued by NWS

Home | Current Version | Previous Version | Text Only | Print | Product List | Glossary On
Versions: 1 2 3 4 5 6 7 8 9 10 11 12 13 14 15 16 17 18 19 20 21 22 23 24 25 26 27 28 29 30 31 32 33 34 35 36 37 38 39 40 41 42 43 44 45 46 47 48 49 50
000
ASMX46 KSGX 241511
RWRMX

MEXICAN WEATHER ROUNDUP
NATIONAL WEATHER SERVICE SAN DIEGO CA
800 AM PDT SUN JUL 24 2016

BAJA CALIFORNIA

CITY           SKY/WX    TMP DP  RH WIND       PRES   REMARKS
ENSENADA NW      N/A     67  32  26 N6        29.88R
LA PAZ         MOSUNNY   84  70  61 N3        29.91S
LORETO         CLOUDY    86  75  70 CALM      29.88R HX  95
MEXICALI       PTSUNNY   88  72  58 SE20      29.84R
S.J. DEL CABO  PTSUNNY   82  73  74 N2        29.93
TIJUANA        PTSUNNY   68  63  83 NW6       29.93  FOG

NORTHWESTERN MEXICO

CITY           SKY/WX    TMP DP  RH WIND       PRES   REMARKS
CHIHUAHUA      SUNNY     81  54  39 CALM      30.11R
CULIACAN       PTSUNNY   82  79  89 CALM      29.92R
GUAYMAS        CLOUDY    86  79  79 CALM      29.88R HX  99
HERMOSILLO     CLOUDY    81  72  74 E3        29.96S
JUAREZ         SUNNY     84  57  39 CALM      29.98R
LOS MOCHIS     PTSUNNY   84  72  65 E12       29.93R
OBREGON        MOSUNNY   86  70  58 E9        29.90S

NORTHEASTERN MEXICO

CITY           SKY/WX    TMP DP  RH WIND       PRES   REMARKS
MATAMOROS      PTSUNNY   88  77  70 S15       29.93R HX 100
MONCLOVA       SUNNY     88  66  48 CALM      30.00R
MONTERREY      SUNNY     82  68  61 E5        29.95R
NUEVO LAREDO   SUNNY     86  73  66 SE12      29.92R
PIEDRAS NEGRAS SUNNY     86  73  66 SE6       29.95S
REYNOSA        MOSUNNY   86  70  58 SE12G23   29.92R
SALTILLO       SUNNY     81  63  54 S6        30.21R
TORREON        SUNNY     84  59  42 E10       30.07R
VICTORIA       SUNNY     79  72  78 SE17      29.92S

WESTERN MEXICO

CITY           SKY/WX    TMP DP  RH WIND       PRES   REMARKS
AGUASCALIENTES MOSUNNY   63  54  72 CALM      30.31S
COLIMA         MOSUNNY   72  66  83 CALM      30.06R
DURANGO        SUNNY     68  57  68 N2        30.27S
GUADALAJARA    MOSUNNY   70  61  73 E5        30.22S
MANZANILLO     MOSUNNY   84  75  74 N7        29.89
MAZATLAN       MOSUNNY   84  75  74 CALM      29.90S
PTO. VALLARTA  MOSUNNY   82  77  83 CALM      29.92R
TEPIC          PTSUNNY   70  68  94 CALM      30.10
URUAPAN        MOSUNNY   66  61  82 CALM      30.22R
ZACATECAS      SUNNY     64  50  59 SW7       30.32

CENTRAL MEXICO

CITY           SKY/WX    TMP DP  RH WIND       PRES   REMARKS
CUERNAVACA       N/A    N/A N/A N/A MISG        N/A
LEON           MOSUNNY   66  59  77 CALM      30.34R
MEXICO CITY    SUNNY     63  52  67 CALM      30.36R
MORELIA        SUNNY     63  57  82 CALM      30.28S
POZA RICA      PTSUNNY   82  75  78 N7        29.97R
PUEBLA         SUNNY     57  52  82 N8        30.36S
QUERETARO      CLOUDY    57  57 100 CALM      30.34S FOG
S. LUIS POTOSI SUNNY     64  52  63 CALM      30.28
TAMPICO        SUNNY     84  75  74 S6        29.95R
TOLUCA         MOSUNNY   61  52  72 CALM      30.42
VERACRUZ       MOSUNNY   84  77  79 W3        29.95R

SOUTHERN MEXICO

CITY           SKY/WX    TMP DP  RH WIND       PRES   REMARKS
ACAPULCO       SUNNY     84  75  74 NW5       29.90S
B. DE HUATULCO PTSUNNY   84  72  65 CALM      29.99R
MINATITLAN     PTSUNNY   84  68  58 CALM      29.89S
OAXACA         MOSUNNY   66  57  72 CALM      30.27R
PTO. ESCONDIDO MOSUNNY   84  70  61 NE9       29.99S
TAPACHULA      PTSUNNY   79  73  83 N3        29.93R
TUX. GUTIERREZ CLOUDY    75  68  78 CALM      30.02S FOG
VILLAHERMOSA   MOSUNNY   82  75  78 CALM      29.96R
ZIHUATANEJO    MOSUNNY   81  73  78 CALM      29.91

YUCATAN PENINSULA

CITY           SKY/WX    TMP DP  RH WIND       PRES   REMARKS
CAMPECHE       PTSUNNY   81  79  94 SE7       29.97R
CANCUN         PTSUNNY   86  79  79 E9        30.01S HX  99
CHETUMAL       PTSUNNY   86  79  79 SE14      29.99R HX  99
C. DEL CARMEN  MOSUNNY   84  75  74 SE16      29.96R
COZUMEL        PTSUNNY   86  77  74 SE16      30.01S HX  97
MERIDA         PTSUNNY   84  77  79 SE12      30.00R

$$





USA.gov is the U.S. government's official web portal to all federal, state and local government web resources and services.